RS-30
1 32953U 08025A 13034.85363629 .00000010 00000-0 00000 0 0 5626
2 32953 082.5038 151.0967 0019375 160.8441 199.3375 12.43031070213349
METEOR-M
1 35865U 09049A 13034.73570517 -.00000008 00000-0 15928-4 0 1894
2 35865 098.6224 090.3203 0003234 093.9440 266.2105 14.21879627175505
RS-38
1 35869U 09049E 13034.72094621 .00000016 00000-0 26459-4 0 1545
2 35869 098.6172 090.2561 0005379 097.0011 263.1777 14.22111595175525
JUGNU
1 37839U 11058B 13033.39412593 .00000620 00000-0 19019-3 0 3255
2 37839 019.9624 043.5388 0018281 237.5289 122.3311 14.12124701 67829
SRMSAT
1 37841U 11058D 13034.39953905 .00000264 00000-0 00000 0 0 3256
2 37841 019.9728 046.8750 0012329 207.9359 152.0403 14.10198038 67860
RAX-2
1 37853U 11061D 13034.49668456 .00001763 00000-0 14405-3 0 4162
2 37853 101.7118 186.3580 0239099 050.2194 311.9794 14.82297599 68634
AUBIESAT
1 37854U 11061E 13033.90490333 .00001868 00000-0 14929-3 0 4140
2 37854 101.7147 186.0972 0239459 050.9232 311.2999 14.82888082 68553
HRBE
1 37855U 11061F 13034.42190646 .00001731 00000-0 13984-3 0 4108
2 37855 101.7155 186.7055 0240061 049.6846 312.5061 14.82622686 68627
RS-39
1 38051U 11062C 13034.75813015 .00008432 00000-0 30685-3 0 1374
2 38051 051.6353 132.6661 0012944 143.7879 354.4136 15.28984387 57346
E-STAR
1 38079U 12006C 13034.67503324 .00033167 31960-5 73532-3 0 8623
2 38079 069.4841 139.4852 0668715 311.6073 042.9667 14.33426298 50536
GOLIAT
1 38085U 12006J 13034.65475485 .00032249 31745-5 71073-3 0 8038
2 38085 069.4884 140.8241 0676609 312.2861 042.2888 14.31880828 50495
HORYU-2
1 38340U 12025D 13034.89566336 .00000959 00000-0 16606-3 0 3534
2 38340 098.2026 341.5428 0012027 319.6928 040.3402 14.70592394 38529
RS-40
1 38736U 12041D 13034.53895877 .00000010 00000-0 00000 0 0 1787
2 38736 082.4742 238.4637 0018003 261.0516 098.8536 12.42650463 23649
PROITERES
1 38756U 12047B 13034.80501523 .00000358 00000-0 62484-4 0 4740
2 38756 098.2673 109.3414 0012765 166.6933 193.4609 14.74065816 21741
AENEAS
1 38760U 0 13010.30862094 .00004933 00000-0 45118-3 0 00386
2 38760 064.6736 037.6222 0216021 256.7016 100.9927 14.80037176005582
CSSWE-D
1 38761U 0 13010.31251606 .00004126 00000-0 38000-3 0 00352
2 38761 064.6743 037.6425 0217594 256.6983 100.9785 14.79845475005606
CXBN-E
1 38762U 0 13010.30523402 .00005383 00000-0 48699-3 0 00360
2 38762 064.6804 037.6257 0218357 256.1531 101.5196 14.79997447005677
OBJECT F
1 38763U 0 13010.30916126 .00003917 00000-0 36085-3 0 00356
2 38763 064.6735 037.6208 0218061 256.7365 100.9342 14.79862223005613
CINEMA-G
1 38764U 0 13010.30690144 .00004197 00000-0 38547-3 0 00341
2 38764 064.6741 037.6060 0217613 256.7942 100.8813 14.79914111005571
CP5
1 38765U 0 13010.36660122 .00005184 00000-0 47138-3 0 00366
2 38765 064.6738 037.3618 0216618 256.5143 101.1776 14.80096794005582
RAIKO
1 38852U 98067CN 13034.23638894 .00029804 00000-0 36434-3 0 1325
2 38852 051.6494 050.0434 0013061 219.2637 140.7410 15.60060371 18863
FITSAT 1
1 38853U 98067CP 13034.23366584 .00038017 00000-0 43219-3 0 1303
2 38853 051.6495 049.2838 0009302 236.7196 123.2906 15.61878063 18929
TechEdSat
1 38854U 98067CQ 13034.52801891 .00066318 00000-0 62250-3 0 1469
2 38854 051.6418 045.9866 0005861 245.1282 114.9107 15.66523401 18990
F 1
1 38855U 98067CR 13034.48206633 .00062420 00000-0 59895-3 0 1492
2 38855 051.6465 046.4266 0008401 237.9137 122.1083 15.65978016 18870
WeWish
1 38856U 98067CS 13034.83529446 .00198697 00000-0 10795-2 0 1651
2 38856 051.6372 040.4950 0003874 190.1825 169.9494 15.78864587 18983
